星链-32357 (STARLINK-32357)

导读 | 豆包AI

STARLINK-32357是美国SpaceX公司星链(Starlink)星座的一员,于2024年9月5日发射,属于低轨互联网通信卫星。星链星座旨在为全球尤其偏远地区提供高速宽带网络服务,该卫星进入轨道后,将为星链网络扩容,提升全球卫星互联网覆盖能力和服务容量,进一步完善SpaceX的低轨卫星通信布局。

基本信息
目录编号:
61009
目录名称:
STARLINK-32357
国际标识:
2024-158V
轨道中心:
EARTH
卫星名称:
星链-32357
卫星全名:
星链-32357 (STARLINK-32357)
卫星状态:
已陨落 最后检测时间 2025-11-19
发射日期:
2024-09-05 UTC
国别 :
美国 (US)
星等 :
--
轨道信息
数据来源 国际轨道数据
星历时间: 2025-11-19T08:22:48+0800
轨道信息已过期163天
半长轴: 6599.644km
偏心率: 0.0009413
轨道倾角: 53.123°
近地点辐角 244.689°
升交点赤经 157.784°
平近点角 115.317°
近地点: 215.296km
远地点: 227.722km
周期: 88.928分钟
每日圈数: 16.192802
详细信息
固有亮度:
5
最大亮度:
2.5
卫星平台:
Starlink V1.0
覆盖范围:
全球
运营商:
太空探索技术公司
运营商所在国:
美国
制造商(研发单位):
太空探索技术公司
制造商所在国:
美国
使用方式:
暂无
卫星简介
Starlink 计划是 SpaceX 推出的全球卫星互联网项目,通过发射低轨道卫星,为全球尤其是偏远地区提供高速、低延迟的互联网服务。自 2019 年起,Starlink 已部署数千颗卫星,旨在缩小全球数字鸿沟,推动互联网普及。该项目还为军事、航空等行业提供通信支持,带来广泛经济效益。